JST797 YBSU-YMML

Flight info

Callsign JST797
Flight time N/A
Altitude 36000
Route SU Q35 DORSU H119 ML
Aircraft A320/M-SDE3FGHIRWY/LB1

Departure

Time N/A
Airport Sunshine Coast Airport (YBSU)

Arrival

Time 2026-05-05 12:45
Airport Melbourne Airport (YMML)
Time Latitude Longitude Altitude Speed Heading
2026-05-05 12:41 -37.64710 145.02871 3411 ft 228 kts 188°
2026-05-05 12:42 -37.66007 145.02294 3309 ft 205 kts 219°
2026-05-05 12:42 -37.66865 145.00951 3169 ft 195 kts 249°
2026-05-05 12:42 -37.67058 144.99289 2776 ft 192 kts 276°
2026-05-05 12:42 -37.66955 144.97599 2468 ft 194 kts 274°
2026-05-05 12:43 -37.66860 144.95908 2190 ft 191 kts 274°
2026-05-05 12:43 -37.66767 144.94249 1957 ft 184 kts 275°
2026-05-05 12:43 -37.66678 144.92687 1700 ft 173 kts 274°
2026-05-05 12:43 -37.66594 144.91214 1440 ft 164 kts 275°
2026-05-05 12:44 -37.66514 144.89828 1213 ft 152 kts 275°
2026-05-05 12:44 -37.66447 144.88555 1045 ft 142 kts 274°
2026-05-05 12:44 -37.66386 144.87337 861 ft 138 kts 275°
2026-05-05 12:44 -37.66317 144.86149 657 ft 136 kts 275°
2026-05-05 12:45 -37.66245 144.84961 499 ft 136 kts 276°
2026-05-05 12:45 -37.66170 144.83837 414 ft 112 kts 276°
2026-05-05 12:45 -37.66137 144.83235 413 ft 31 kts 273°
2026-05-05 12:45 -37.66159 144.82958 405 ft 33 kts 251°
2026-05-05 12:46 -37.66269 144.82709 394 ft 31 kts 216°
2026-05-05 12:46 -37.66439 144.82773 386 ft 28 kts 109°
2026-05-05 12:46 -37.66459 144.83023 391 ft 28 kts 95°
2026-05-05 12:46 -37.66474 144.83261 400 ft 27 kts 94°
2026-05-05 12:47 -37.66486 144.83479 404 ft 24 kts 93°
2026-05-05 12:47 -37.66489 144.83554 402 ft 0 kts 93°
2026-05-05 12:48 -37.66490 144.83568 401 ft 4 kts 93°
2026-05-05 12:48 -37.66493 144.83642 405 ft 13 kts 94°
2026-05-05 12:48 -37.66501 144.83783 404 ft 20 kts 95°
2026-05-05 12:49 -37.66510 144.83958 404 ft 21 kts 94°
2026-05-05 12:49 -37.66564 144.84134 402 ft 23 kts 148°
2026-05-05 12:49 -37.66738 144.84184 394 ft 28 kts 173°
2026-05-05 12:49 -37.66920 144.84217 388 ft 24 kts 173°
2026-05-05 12:50 -37.67083 144.84248 384 ft 23 kts 171°
2026-05-05 12:50 -37.67243 144.84278 381 ft 23 kts 171°
2026-05-05 12:50 -37.67399 144.84305 378 ft 22 kts 175°
2026-05-05 12:50 -37.67473 144.84417 377 ft 19 kts 82°
2026-05-05 12:51 -37.67453 144.84582 380 ft 17 kts 80°
2026-05-05 12:51 -37.67456 144.84685 381 ft 8 kts 144°
2026-05-05 12:51 -37.67518 144.84694 379 ft 8 kts 173°
2026-05-05 12:51 -37.67535 144.84697 379 ft 1 kts 171°
2026-05-05 12:52 -37.67539 144.84697 379 ft 0 kts 172°